RAPIDEYE 4

Last updated on Mon Sep 14 2020 05:43:38 GMT+0000 (Coordinated Universal Time)

1 33316U 08040E 20257.73975776 .00000107 00000-0 14765-4 0 9990 2 33316 97.6928 320.0823 0006979 358.1511 1.9683 14.95495907650991

Satellite not in orbit

RAPIDEYE 4